OM6ACB-6 Weather Reports


Display with metric or nautical units.
time (UTC)temp
F
wind
direction
speed
MPH
gust
MPH
rain 1hr
in
rain 24hr
in
rain mn
in
humidity
%
barometer
mb
20260831085234 81 27 2.0 6.0 0.00 0.00 0.00 20 1021.4
20260831084234 83 304 0.0 2.0 0.00 0.00 0.00 20 1021.7
20260831083233 78 333 2.0 3.0 0.00 0.00 0.00 20 1021.3
20260831082233 79 349 1.0 4.0 0.00 0.00 0.00 20 1021.4
20260831081233 75 324 2.0 4.0 0.00 0.00 0.00 21 1021.2
20260831080232 74 325 2.0 4.0 0.00 0.00 0.00 21 1021.4
20260831075232 76 319 1.0 4.0 0.00 0.00 0.00 20 1021.2
20260831074232 76 336 0.0 2.0 0.00 0.00 0.00 20 1021.5
20260831073231 73 321 1.0 3.0 0.00 0.00 0.00 21 1021.2
20260831072231 72 325 1.0 3.0 0.00 0.00 0.00 21 1021.1
20260831071231 76 78 0.0 3.0 0.00 0.00 0.00 20 1021.6
20260831070231 71 323 0.0 2.0 0.00 0.00 0.00 22 1021.2
20260831065230 68 329 1.0 2.0 0.00 0.00 0.00 22 1021.0
20260831064230 70 345 1.0 3.0 0.00 0.00 0.00 22 1021.2
20260831063230 67 351 0.0 3.0 0.00 0.00 0.00 23 1021.1
20260831062229 67 128 0.0 2.0 0.00 0.00 0.00 23 1021.2
20260831061229 66 11 0.0 2.0 0.00 0.00 0.00 23 1021.1
20260831060229 67 78 0.0 2.0 0.00 0.00 0.00 23 1021.1
20260831055229 66 53 0.0 2.0 0.00 0.00 0.00 23 1021.1
20260831054228 65 1 0.0 1.0 0.00 0.00 0.00 23 1021.0
20260831053228 64 1 0.0 0.0 0.00 0.00 0.00 24 1020.9
20260831052228 62 0 0.0 0.0 0.00 0.00 0.00 24 1020.7
20260831051227 60 0 0.0 0.0 0.00 0.00 0.00 25 1020.6
20260831050227 62 0 0.0 0.0 0.00 0.00 0.00 24 1020.8
20260831045227 55 0 0.0 0.0 0.00 0.00 0.00 26 1020.3
20260831044226 54 0 0.0 0.0 0.00 0.00 0.00 26 1020.1
20260831043226 53 0 0.0 0.0 0.00 0.00 0.00 42 1020.0
20260831042226 51 0 0.0 0.0 0.00 0.00 0.00 60 1019.9
20260831041226 51 0 0.0 0.0 0.00 0.00 0.00 61 1019.8
20260831040225 49 0 0.0 0.0 0.00 0.00 0.00 62 1019.6
20260831035225 50 0 0.0 0.0 0.00 0.00 0.00 62 1019.5
20260831034225 50 0 0.0 0.0 0.00 0.00 0.00 62 1019.5
20260831033224 50 0 0.0 0.0 0.00 0.00 0.00 60 1019.6
20260831032224 51 0 0.0 0.0 0.00 0.00 0.00 61 1019.6
20260831031224 50 0 0.0 0.0 0.00 0.00 0.00 60 1019.7
20260831030224 51 0 0.0 0.0 0.00 0.00 0.00 60 1019.8
20260831025223 50 0 0.0 0.0 0.00 0.00 0.00 59 1019.9
20260831024223 50 0 0.0 0.0 0.00 0.00 0.00 59 1020.0
20260831023223 51 0 0.0 0.0 0.00 0.00 0.00 57 1020.0
20260831022222 51 0 0.0 0.0 0.00 0.00 0.00 57 1020.0
20260831021222 52 0 0.0 0.0 0.00 0.00 0.00 55 1020.0
20260831020222 52 0 0.0 0.0 0.00 0.00 0.00 55 1020.0
20260831015222 52 0 0.0 0.0 0.00 0.00 0.00 55 1020.0
20260831014221 53 0 0.0 0.0 0.00 0.00 0.00 57 1020.1
20260831013221 53 0 0.0 0.0 0.00 0.00 0.00 58 1020.0
20260831012221 52 0 0.0 0.0 0.00 0.00 0.00 57 1020.0
20260831011220 51 0 0.0 0.0 0.00 0.00 0.00 54 1020.0
20260831010220 52 0 0.0 0.0 0.00 0.00 0.00 56 1020.1
20260831005220 53 0 0.0 0.0 0.00 0.00 0.00 57 1020.1
20260831004219 53 0 0.0 0.0 0.00 0.00 0.00 58 1020.3
20260831003219 53 0 0.0 0.0 0.00 0.00 0.00 57 1020.2
20260831002219 53 0 0.0 0.0 0.00 0.00 0.00 53 1020.2
20260831001219 53 0 0.0 0.0 0.00 0.00 0.00 53 1020.3
20260831000218 54 0 0.0 0.0 0.00 0.00 0.00 49 1020.3
20260830235218 54 0 0.0 0.0 0.00 0.00 0.00 49 1020.3
20260830234218 53 0 0.0 0.0 0.00 0.00 0.00 48 1020.3
20260830233217 53 0 0.0 0.0 0.00 0.00 0.00 45 1020.3
20260830232217 54 0 0.0 0.0 0.00 0.00 0.00 40 1020.3
20260830231217 54 0 0.0 0.0 0.00 0.00 0.00 40 1020.4
20260830230217 54 0 0.0 0.0 0.00 0.00 0.00 38 1020.4
20260830225216 54 0 0.0 0.0 0.00 0.00 0.00 36 1020.5
20260830224216 55 0 0.0 0.0 0.00 0.00 0.00 35 1020.5
20260830223216 54 0 0.0 0.0 0.00 0.00 0.00 33 1020.5
20260830222215 55 0 0.0 0.0 0.00 0.00 0.00 36 1020.5
20260830221215 55 0 0.0 0.0 0.00 0.00 0.00 37 1020.6
20260830220215 55 0 0.0 0.0 0.00 0.00 0.00 34 1020.5
20260830215215 55 0 0.0 0.0 0.00 0.00 0.00 32 1020.6
20260830214214 56 0 0.0 0.0 0.00 0.00 0.00 29 1020.5
20260830213214 56 0 0.0 0.0 0.00 0.00 0.00 28 1020.5
20260830212214 56 0 0.0 0.0 0.00 0.00 0.00 27 1020.5
20260830211213 57 0 0.0 0.0 0.00 0.00 0.00 27 1020.5
20260830210213 57 0 0.0 0.0 0.00 0.00 0.00 27 1020.5
20260830205213 57 0 0.0 0.0 0.00 0.00 0.00 26 1020.4
20260830204213 57 0 0.0 0.0 0.00 0.00 0.00 26 1020.4
20260830203212 58 0 0.0 0.0 0.00 0.00 0.00 25 1020.4
20260830202212 58 0 0.0 0.0 0.00 0.00 0.00 25 1020.4
20260830201212 58 0 0.0 0.0 0.00 0.00 0.00 25 1020.4
20260830200211 59 0 0.0 0.0 0.00 0.00 0.00 25 1020.4
20260830195211 59 0 0.0 0.0 0.00 0.00 0.00 25 1020.4
20260830194211 59 0 0.0 0.0 0.00 0.00 0.00 25 1020.3
20260830193210 61 0 0.0 0.0 0.00 0.00 0.00 25 1020.3
20260830192210 60 0 0.0 0.0 0.00 0.00 0.00 25 1020.3
20260830191210 60 0 0.0 0.0 0.00 0.00 0.00 25 1020.2
20260830190210 62 0 0.0 0.0 0.00 0.00 0.00 24 1020.3
20260830185209 62 0 0.0 0.0 0.00 0.00 0.00 24 1020.3
20260830184209 62 0 0.0 0.0 0.00 0.00 0.00 24 1020.3
20260830183209 62 0 0.0 0.0 0.00 0.00 0.00 24 1020.2
20260830182208 64 0 0.0 0.0 0.00 0.00 0.00 24 1020.2
20260830181208 64 0 0.0 0.0 0.00 0.00 0.00 24 1020.2
20260830180208 65 0 0.0 0.0 0.00 0.00 0.00 23 1020.1
20260830175208 65 41 0.0 1.0 0.00 0.00 0.00 23 1020.1
20260830174207 68 0 0.0 0.0 0.00 0.00 0.00 23 1020.1
20260830173207 69 0 0.0 0.0 0.00 0.00 0.00 22 1020.2
20260830172207 71 0 0.0 0.0 0.00 0.00 0.00 22 1020.2
20260830171206 72 0 0.0 0.0 0.00 0.00 0.00 22 1020.3
20260830170206 73 0 0.0 0.0 0.00 0.00 0.00 21 1020.4
20260830165206 75 0 0.0 0.0 0.00 0.00 0.00 21 1020.4
20260830164205 76 135 0.0 1.0 0.00 0.00 0.00 20 1020.5
20260830163205 77 51 0.0 1.0 0.00 0.00 0.00 20 1020.6
20260830162205 79 105 0.0 2.0 0.00 0.00 0.00 20 1020.8
20260830161207 85 92 1.0 3.0 0.00 0.00 0.00 20 1021.3
20260830160204 85 81 0.0 3.0 0.00 0.00 0.00 20 1021.3
20260830155204 88 64 2.0 4.0 0.00 0.00 0.00 20 1021.5
20260830154204 88 45 0.0 4.0 0.00 0.00 0.00 20 1021.5
20260830153203 83 81 1.0 3.0 0.00 0.00 0.00 20 1021.2
20260830152203 81 69 1.0 4.0 0.00 0.00 0.00 20 1021.0
20260830151203 82 136 1.0 2.0 0.00 0.00 0.00 20 1021.2
20260830150203 86 92 1.0 4.0 0.00 0.00 0.00 20 1021.5
20260830145202 87 85 2.0 4.0 0.00 0.00 0.00 20 1021.6
20260830144202 87 94 3.0 7.0 0.00 0.00 0.00 20 1021.7
20260830143202 88 87 2.0 4.0 0.00 0.00 0.00 20 1021.7
20260830142201 87 116 2.0 4.0 0.00 0.00 0.00 20 1021.6
20260830141201 87 92 2.0 4.0 0.00 0.00 0.00 20 1021.8
20260830140201 87 90 3.0 8.0 0.00 0.00 0.00 20 1021.7
20260830135200 85 66 6.0 9.0 0.00 0.00 0.00 20 1021.6
20260830134200 85 68 5.0 8.0 0.00 0.00 0.00 20 1021.7
20260830133200 85 81 4.0 8.0 0.00 0.00 0.00 20 1021.7
20260830132200 86 72 4.0 10.0 0.00 0.00 0.00 20 1021.9
20260830131159 86 84 3.0 5.0 0.00 0.00 0.00 20 1022.0
20260830130159 85 73 3.0 8.0 0.00 0.00 0.00 20 1021.7
20260830125159 85 88 2.0 3.0 0.00 0.00 0.00 20 1022.0
20260830124158 81 109 2.0 4.0 0.00 0.00 0.00 20 1021.7
20260830123158 85 88 3.0 7.0 0.00 0.00 0.00 20 1022.0
20260830122158 84 76 4.0 8.0 0.00 0.00 0.00 20 1021.9
20260830121158 86 55 3.0 7.0 0.00 0.00 0.00 20 1022.3
20260830120157 85 22 2.0 5.0 0.00 0.00 0.00 20 1022.2
20260830115157 80 44 2.0 5.0 0.00 0.00 0.00 20 1021.9
20260830114157 80 281 3.0 4.0 0.00 0.00 0.00 20 1022.0
20260830113157 82 72 2.0 6.0 0.00 0.00 0.00 20 1022.5
20260830112156 86 65 4.0 6.0 0.00 0.00 0.00 20 1022.7
20260830111156 84 60 5.0 8.0 0.00 0.00 0.00 20 1022.6
20260830110156 85 61 3.0 7.0 0.00 0.00 0.00 20 1022.7
20260830105155 84 66 4.0 7.0 0.00 0.00 0.00 20 1022.7
20260830104155 85 65 2.0 8.0 0.00 0.00 0.00 20 1022.9
20260830103155 85 38 4.0 5.0 0.00 0.00 0.00 20 1023.0
20260830102154 86 52 2.0 5.0 0.00 0.00 0.00 20 1023.2
20260830101154 85 68 2.0 4.0 0.00 0.00 0.00 20 1023.1
20260830100154 84 70 2.0 6.0 0.00 0.00 0.00 20 1023.1
20260830095154 85 126 2.0 5.0 0.00 0.00 0.00 20 1023.2
20260830094153 83 22 1.0 5.0 0.00 0.00 0.00 20 1023.3
20260830093153 82 5 1.0 3.0 0.00 0.00 0.00 20 1023.3
20260830092153 80 52 1.0 3.0 0.00 0.00 0.00 20 1023.2
20260830091152 78 96 0.0 3.0 0.00 0.00 0.00 20 1023.1
20260830090152 74 345 1.0 5.0 0.00 0.00 0.00 21 1022.8